Terminal Aerodrome Forecast
Issued by NWS

Home | Current Version | Previous Version | Text Only | Print | Product List | Glossary Off
Versions: 1 2 3 4 5 6 7 8 9 10 11 12 13 14 15 16 17 18

000
FTUS43 KABR 260500
TAFPIR
TAF
KPIR 260526Z 2606/2706 09008KT P6SM -SHRA VCTS SCT080CB BKN150
      TEMPO 2606/2608 P6SM -TSRA BKN070CB
     FM261000 02006KT P6SM SCT100 BKN150
     FM261400 32010KT P6SM BKN250
     FM261600 31018G28KT P6SM SKC
     FM270200 32009KT P6SM SKC=

USA.gov is the U.S. government's official web portal to all federal, state and local government web resources and services.